CAPE
1 0 0 0 0 0 0 0 0 0 0 0 0 0 0 0 0 0 0 0 0 0 0 0 0 0 0 0 0 0 0 0 0 0 0 0 0 0 0 0 0 9 354 2557 2030
1 1 0 0 0 0 0 0 0 0 0 0 0 0 0 0 0 0 0 0 0 0 0 0 0 0 0 0 0 0 0 0 0 0 0 0 0 0 0 0 0 0 768 2384 1964
1 1 0 0 0 0 0 0 0 0 0 0 0 0 0 0 0 0 0 0 0 0 0 0 0 0 0 0 0 0 0 0 0 0 0 0 0 0 0 0 0 0 195 2048 1568
0 0 0 0 0 0 0 0 0 0 0 0 0 0 0 0 0 0 0 0 0 0 0 0 0 0 0 0 0 0 0 0 0 0 0 0 0 0 0 0 0 0 4 1464 1659
0 0 0 0 0 0 0 0 0 0 0 0 0 0 0 0 0 0 0 0 0 0 0 0 0 0 0 0 0 0 0 0 0 0 0 0 0 0 0 0 0 0 0 0 121
0 0 0 0 0 0 0 0 0 0 0 0 0 0 0 0 0 0 0 0 0 0 0 0 0 0 0 0 0 0 0 0 0 0 0 0 0 0 0 0 0 0 0 0 0
0 0 0 0 0 0 0 0 0 0 0 0 0 0 0 0 0 0 0 0 0 0 0 0 0 0 0 0 0 0 0 0 0 0 0 0 0 0 0 0 0 0 0 0 0
0 0 0 0 0 0 0 0 0 0 0 0 0 0 0 0 0 0 0 0 0 0 0 0 0 0 0 0 0 0 0 0 0 0 0 0 0 0 0 0 0 0 0 0 0
0 0 0 0 0 0 0 0 0 0 0 0 0 0 0 0 0 0 0 0 0 0 0 0 0 0 0 0 0 0 0 0 0 0 0 0 0 0 0 0 0 0 0 0 0
0 0 0 0 0 0 0 0 0 0 0 0 0 0 0 0 0 0 0 0 0 0 0 0 0 0 0 0 0 0 0 0 0 0 0 0 0 0 0 0 0 0 0 0 0
0 0 0 0 0 0 0 0 0 0 0 0 0 0 0 0 0 0 0 0 0 0 0 0 0 0 0 0 0 0 0 0 0 0 0 0 0 0 0 0 0 0 0 0 0
1 0 0 0 0 0 0 0 0 0 0 0 0 0 0 0 0 0 0 0 0 0 0 0 0 0 0 0 0 0 0 0 0 0 0 0 0 0 0 0 0 0 0 0 0
4 0 0 0 0 0 0 0 0 0 0 0 0 0 0 0 0 0 0 0 0 0 0 0 0 0 0 0 0 0 0 0 0 0 0 0 0 0 0 0 0 0 0 0 0
2 0 0 0 0 0 0 0 0 0 2 0 0 0 0 0 0 0 0 0 0 0 0 0 0 0 0 0 0 0 0 0 0 0 0 0 0 0 0 0 0 0 0 0 0
0 0 0 0 0 0 0 0 0 19 1 0 0 0 0 0 0 0 0 0 0 0 0 0 0 0 0 0 0 0 0 0 0 0 0 0 0 0 0 0 0 0 0 0 0
0 0 0 2 0 0 0 30 5 2 1 0 0 0 0 0 0 0 0 0 0 0 0 0 0 0 0 0 0 0 0 0 0 0 0 0 0 0 0 0 0 0 0 0 0
2 3 2 0 4 1 11 15 1 0 0 0 0 0 0 0 0 0 0 0 0 0 0 0 0 0 0 0 0 0 0 0 0 0 0 0 0 0 0 0 0 0 0 0 0
7 8 2 11 4 0 16 4 2 0 0 0 0 0 0 0 0 0 0 0 0 0 0 0 0 0 0 0 0 0 0 0 0 0 0 0 0 0 0 0 0 0 0 0 0
7 2 4 12 3 26 9 0 0 0 0 0 0 0 0 0 0 0 0 0 0 0 0 0 0 0 0 0 0 0 1 0 2 0 2 0 0 0 0 1 0 0 0 0 0
2 9 12 23 28 3 1 0 0 0 0 0 0 0 0 0 0 0 0 0 0 0 0 0 0 0 0 0 0 0 0 1 2 5 0 0 2 5 1 0 33 0 0 0 0
12 4 10 38 35 11 0 0 0 0 0 0 0 0 0 0 0 0 0 0 0 0 0 0 0 0 0 0 0 0 0 3 1 10 8 0 0 0 0 0 2 3 0 0 0
13 0 24 78 9 12 3 0 0 0 0 0 0 0 0 0 0 0 0 0 0 0 0 0 0 0 0 0 0 0 0 0 0 0 1 13 4 0 0 0 0 2 11 0 0
2 1 3 21 1 1 0 0 0 0 0 0 0 0 0 0 0 0 0 0 0 0 0 0 0 0 0 0 0 0 0 1 0 0 16 11 0 4 2 0 0 0 0 2 7
0 0 1 5 5 2 6 3 0 0 0 1 0 0 0 0 0 0 1 2 0 0 0 0 0 6 3 0 0 0 0 0 0 0 0 1 8 15 1 0 0 0 2 1 2
1 2 0 0 0 3 1 1 0 4 0 0 0 0 0 4 1 0 1 2 1 0 0 4 3 1 3 10 15 14 2 3 19 4 23 1 0 9 2 0 0 3 0 3 1
0 0 3 1 0 1 4 8 1 3 1 1 0 1 0 0 0 0 0 0 0 0 0 0 0 2 0 0 1 3 2 16 2 1 2 82 91 34 49 0 1 0 5 27 26
0 0 2 0 2 0 0 0 0 6 8 4 0 2 1 1 0 0 0 0 0 0 0 0 1 2 1 0 5 0 0 1 19 14 76 23 53 46 6 6 32 15 12 35 49
CIN
0 0 0 0 0 0 0 0 0 0 0 0 0 0 0 0 0 0 0 0 0 0 0 0 0 0 0 0 0 0 0 0 0 0 0 0 0 0 0 0 0 -3 -37 -29 -168
-1 0 0 0 0 0 0 0 0 0 0 0 0 0 0 0 0 0 0 0 0 0 0 0 0 0 0 0 0 0 0 0 0 0 0 0 0 0 0 0 0 0 -36 -108 -171
0 0 0 0 0 0 0 0 0 0 0 0 0 0 0 0 0 0 0 0 0 0 0 0 0 0 0 0 0 0 0 0 0 0 0 0 0 0 0 0 0 0 -37 -69 -154
0 0 0 0 0 0 0 0 0 0 0 0 0 0 0 0 0 0 0 0 0 0 0 0 0 0 0 0 0 0 0 0 0 0 0 0 0 0 0 0 0 0 -9 -20 -49
0 0 0 0 0 0 0 0 0 0 0 0 0 0 0 0 0 0 0 0 0 0 0 0 0 0 0 0 0 0 0 0 0 0 0 0 0 0 0 0 0 0 0 0 -16
0 0 0 0 0 0 0 0 0 0 0 0 0 0 0 0 0 0 0 0 0 0 0 0 0 0 0 0 0 0 0 0 0 0 0 0 0 0 0 0 0 0 0 0 0
0 0 0 0 0 0 0 0 0 0 0 0 0 0 0 0 0 0 0 0 0 0 0 0 0 0 0 0 0 0 0 0 0 0 0 0 0 0 0 0 0 0 0 0 0
0 0 0 0 0 0 0 0 0 0 0 0 0 0 0 0 0 0 0 0 0 0 0 0 0 0 0 0 0 0 0 0 0 0 0 0 0 0 0 0 0 0 0 0 0
0 0 0 0 0 0 0 0 0 0 0 0 0 0 0 0 0 0 0 0 0 0 0 0 0 0 0 0 0 0 0 0 0 0 0 0 0 0 0 0 0 0 0 0 0
0 0 0 0 0 0 0 0 0 0 0 0 0 0 0 0 0 0 0 0 0 0 0 0 0 0 0 0 0 0 0 0 0 0 0 0 0 0 0 0 0 0 0 0 0
0 0 0 0 0 0 0 0 0 0 0 0 0 0 0 0 0 0 0 0 0 0 0 0 0 0 0 0 0 0 0 0 0 0 0 0 0 0 0 0 0 0 0 0 0
0 0 0 0 0 0 0 0 0 0 0 0 0 0 0 0 0 0 0 0 0 0 0 0 0 0 0 0 0 0 0 0 0 0 0 0 0 0 0 0 0 0 0 0 0
0 0 0 0 0 0 0 0 0 0 0 0 0 0 0 0 0 0 0 0 0 0 0 0 0 0 0 0 0 0 0 0 0 0 0 0 0 0 0 0 0 0 0 0 0
0 0 0 0 0 0 0 0 0 0 0 0 0 0 0 0 0 0 0 0 0 0 0 0 0 0 0 0 0 0 0 0 0 0 0 0 0 0 0 0 0 0 0 0 0
0 0 0 0 0 0 0 0 0 -10 0 0 0 0 0 0 0 0 0 0 0 0 0 0 0 0 0 0 0 0 0 0 0 0 0 0 0 0 0 0 0 0 0 0 0
0 0 0 0 0 0 0 -3 -1 0 0 0 0 0 0 0 0 0 0 0 0 0 0 0 0 0 0 0 0 0 0 0 0 0 0 0 0 0 0 0 0 0 0 0 0
0 0 0 0 -1 -5 -3 0 0 0 0 0 0 0 0 0 0 0 0 0 0 0 0 0 0 0 0 0 0 0 0 0 0 0 0 0 0 0 0 0 0 0 0 0 0
0 0 -2 -1 -1 -2 0 0 0 0 0 0 0 0 0 0 0 0 0 0 0 0 0 0 0 0 0 0 0 0 0 0 0 0 0 0 0 0 0 0 0 0 0 0 0
-1 -3 -5 -1 -3 -3 0 0 0 0 0 0 0 0 0 0 0 0 0 0 0 0 0 0 0 0 0 0 0 0 -2 0 -20 0 -1 0 0 0 0 -5 0 0 0 0 0
-1 0 0 -1 -1 -1 0 0 0 0 0 0 0 0 0 0 0 0 0 0 0 0 0 0 0 0 0 0 0 0 0 -4 -5 -2 -3 0 -2 -1 -29 -30 -30 0 0 -4 0
-1 0 0 -1 -1 0 0 0 0 0 0 0 0 0 0 0 0 0 0 0 0 0 0 0 0 0 0 0 0 0 0 -5 -6 -13 -3 0 0 0 0 0 0 0 0 0 0
0 0 -2 -1 0 0 0 0 0 0 0 0 0 0 0 0 0 0 0 0 0 0 0 0 0 0 0 0 0 0 0 0 -1 0 -11 -4 -2 0 0 0 0 0 0 0 0
0 0 -3 -6 0 0 0 0 0 0 0 0 0 0 0 0 0 0 0 0 0 0 0 0 0 -1 0 0 0 -2 0 -3 0 0 0 -1 0 -26 -6 0 0 0 0 -1 -2
0 0 0 0 -1 -1 -1 -3 0 0 0 -1 0 -1 -2 -1 0 0 -1 -2 0 0 0 0 0 -3 -2 0 0 0 0 0 0 0 0 -8 -14 -19 -21 0 0 0 -2 -6 -5
-1 0 0 0 0 -6 -3 -2 0 -1 0 0 0 0 -1 -2 -2 -1 -1 -5 -11 -1 0 -7 -1 -2 -5 -5 -7 -7 -5 -5 -8 -17 -11 -19 -6 -25 -25 0 0 -17 -2 -11 -2
0 0 -1 -2 -1 -3 -2 0 -1 -3 -2 -3 0 -7 -2 0 0 0 0 0 0 0 0 0 0 -3 0 0 -3 -8 -5 -2 -12 -14 -5 -2 -3 -97 -23 -1 -22 -1 -15 -8 -16
0 -4 -19 -1 -12 -7 0 0 0 -4 -3 -3 -2 -4 -5 -2 0 0 0 0 0 0 0 0 -1 -3 -2 0 -7 0 0 -2 -5 -8 -3 -7 -28 -25 -15 -9 -1 -49 -75 -22 -7
Wind_Speed
15 18 18 20 22 25 26 28 30 32 33 34 35 36 37 39 40 37 30 19 19 23 25 25 27 20 13 31 12 21 17 13 17 9 30 16 16 17 17 21 25 16 20 9 5
16 18 17 18 22 26 27 29 31 33 34 34 35 36 36 38 38 28 14 15 18 21 22 24 26 28 26 31 30 5 9 9 7 31 31 29 28 21 13 8 11 11 10 7 5
18 18 18 19 23 26 29 32 33 34 35 34 35 36 36 37 32 14 12 14 18 21 27 30 31 28 32 28 25 11 9 12 21 35 29 29 30 22 18 10 15 18 1 4 6
19 19 19 21 23 26 30 32 34 34 35 34 35 36 37 27 22 17 14 19 23 21 17 25 23 20 14 8 5 11 13 16 14 30 32 30 25 30 26 18 22 22 7 2 3
20 19 21 23 24 27 29 32 34 35 34 36 36 36 32 24 21 16 18 18 20 22 22 22 22 26 25 23 21 9 15 35 31 28 33 26 20 25 25 27 20 19 14 9 7
21 20 21 23 24 27 29 32 34 36 36 35 35 35 27 33 21 15 17 21 24 27 28 21 17 19 28 28 29 29 34 37 40 35 31 30 26 23 19 19 21 17 13 11 9
22 21 21 23 25 27 30 32 34 36 37 36 33 29 29 24 26 31 22 24 23 20 23 23 26 23 23 24 16 25 36 32 18 33 35 28 23 18 19 19 19 17 14 15 15
24 23 23 23 25 27 30 32 35 37 36 35 28 27 32 23 23 25 19 17 14 17 18 17 18 21 24 21 27 29 30 40 27 21 21 17 27 28 21 27 14 14 17 19 17
27 25 24 25 25 27 30 33 37 38 34 28 27 25 37 19 22 15 16 21 19 17 16 18 19 20 21 23 32 24 34 32 33 20 19 18 26 25 16 20 20 19 18 14 16
29 27 25 25 26 28 31 33 35 32 28 24 28 31 28 28 21 20 20 19 19 22 17 17 22 24 19 22 28 29 28 29 28 22 19 24 26 23 29 29 20 21 20 19 20
30 29 26 26 26 28 31 32 34 33 28 27 24 25 23 22 23 24 23 22 22 24 27 26 24 25 24 23 25 30 37 41 39 36 39 37 39 35 26 27 27 27 27 31 28
30 29 27 26 28 25 27 32 31 29 39 26 31 34 34 35 36 31 23 24 23 27 26 26 27 27 27 31 36 39 42 42 43 38 37 40 45 36 31 30 30 31 30 26 25
30 27 26 24 26 29 30 34 30 29 38 39 33 33 28 28 33 33 23 21 24 31 28 31 28 25 29 32 30 33 36 39 43 42 41 42 46 38 34 33 30 27 30 27 30
26 25 25 24 28 29 30 24 23 23 38 37 27 30 23 23 32 21 20 21 23 28 28 31 29 28 28 31 29 38 34 39 41 40 45 34 49 39 36 36 27 22 24 24 22
26 25 23 22 28 27 24 18 17 19 43 25 16 12 15 17 21 19 13 18 25 25 22 25 23 23 27 27 28 38 34 37 41 41 41 45 36 51 41 41 40 34 24 21 23
25 24 21 25 24 18 13 12 16 30 44 27 19 21 20 20 22 17 18 18 22 27 29 31 30 31 29 29 30 34 36 38 38 39 45 45 44 41 48 43 47 37 20 18 25
21 21 21 23 25 14 12 14 31 41 28 29 26 22 23 23 23 22 24 24 27 31 36 34 31 26 26 34 29 30 34 43 44 41 48 43 47 44 40 47 36 25 19 17 20
16 15 17 19 15 13 13 24 42 34 31 28 24 24 27 20 23 25 26 30 24 28 34 40 42 25 26 30 33 33 35 37 49 50 52 47 51 48 33 30 26 22 20 19 20
12 15 17 16 14 14 20 36 36 29 25 25 22 25 25 22 21 22 26 29 28 28 35 35 36 31 29 30 32 35 38 37 46 51 57 57 60 52 50 33 29 24 20 18 19
12 11 12 8 8 11 24 29 28 22 19 19 25 24 27 23 24 24 25 22 22 23 27 30 45 34 37 39 32 32 37 46 46 58 62 58 57 54 43 44 27 22 24 23 20
8 13 8 8 7 17 26 24 19 18 18 21 24 25 25 26 26 28 25 26 26 31 31 33 37 44 42 39 45 41 45 40 40 42 54 58 49 30 36 33 33 33 34 32 25
7 17 10 11 15 18 24 19 19 17 20 24 25 27 28 27 31 32 32 29 26 31 37 34 39 51 48 43 40 44 44 41 49 55 48 48 44 35 29 30 27 34 31 29 32
9 10 11 14 19 20 20 22 21 23 21 21 25 23 24 28 32 29 31 28 27 30 30 31 34 49 53 45 36 38 39 40 44 45 54 61 59 37 39 42 39 41 37 34 39
8 15 12 17 19 18 19 22 23 21 22 21 25 24 26 28 27 30 31 27 24 24 23 25 36 42 53 52 48 55 52 46 46 52 51 50 49 43 39 46 47 43 41 30 32
11 13 14 20 22 17 19 21 23 23 21 21 26 28 30 33 32 34 32 31 25 24 24 26 43 43 44 46 45 47 50 49 49 46 51 51 50 37 42 42 35 40 38 33 34
12 13 14 15 17 19 19 19 20 20 21 23 25 25 24 27 29 35 36 35 36 34 36 34 48 44 52 47 48 52 51 46 44 45 50 51 48 53 50 37 34 36 29 34 34
13 13 13 17 16 19 22 20 19 19 22 23 23 26 28 29 24 25 26 27 29 33 33 32 37 39 52 41 43 55 38 43 44 39 38 36 29 49 49 43 40 25 34 34 30
Wind_Direction
314 314 316 317 316 317 318 320 320 317 316 315 307 307 306 307 300 298 304 331 329 317 307 296 284 311 319 278 295 244 308 308 314 323 307 340 328 325 321 313 312 324 312 342 4
305 307 310 314 313 311 314 314 313 311 310 309 307 307 303 308 300 267 348 348 335 319 309 298 293 287 297 276 272 292 298 293 298 291 307 303 312 323 329 349 327 317 327 337 325
298 301 304 308 309 310 307 306 304 304 302 307 305 304 301 306 319 354 12 358 340 323 294 272 281 295 270 266 234 219 254 304 308 292 313 308 303 311 315 319 324 325 309 1 340
292 296 298 302 306 307 304 303 302 301 301 301 304 304 298 325 319 339 350 332 321 322 336 312 313 315 317 307 271 232 232 302 295 301 305 304 310 298 303 314 306 312 339 58 335
286 289 294 299 302 303 303 303 299 297 301 302 304 307 318 319 314 332 330 331 321 319 319 319 316 311 310 313 311 278 290 289 300 303 299 305 303 302 301 299 305 303 300 302 308
280 284 289 294 298 301 303 301 299 295 296 306 309 309 321 305 324 329 331 320 314 306 306 317 319 317 307 308 304 305 296 289 281 297 301 301 299 299 298 299 294 291 286 281 275
275 278 285 290 294 298 299 300 299 297 296 301 312 318 310 306 310 301 316 315 315 316 311 309 305 307 315 315 309 311 295 302 300 296 294 300 292 283 298 294 286 281 281 295 288
271 275 281 287 292 294 298 299 298 296 300 304 316 315 304 313 315 314 316 322 330 328 322 325 320 311 304 305 305 304 303 293 310 304 301 286 298 304 308 309 275 298 298 299 297
267 271 277 283 288 292 296 296 296 295 301 308 312 309 299 322 312 325 325 316 319 326 327 322 320 308 312 304 299 304 296 299 302 309 312 299 298 308 304 314 301 300 297 291 295
263 267 271 277 284 290 293 296 297 301 302 304 299 299 298 297 312 317 320 320 315 315 314 313 311 302 305 299 295 304 302 300 302 313 303 297 295 297 298 298 294 295 293 287 289
262 266 269 274 281 287 291 293 294 295 285 286 296 291 307 310 310 304 307 306 308 303 297 297 293 295 300 296 296 299 298 296 299 303 302 299 296 295 298 297 293 289 289 291 290
259 261 266 275 280 284 289 284 292 296 292 280 285 286 287 296 293 295 303 295 297 293 296 291 284 292 295 296 297 296 296 296 298 303 301 300 294 294 293 293 294 293 289 287 288
257 259 261 266 277 280 279 281 295 299 289 287 280 282 284 289 286 291 292 289 286 291 292 289 294 298 294 297 293 296 297 298 297 300 299 302 284 295 295 294 291 281 284 280 290
249 254 262 267 273 277 279 284 300 302 288 290 286 287 277 291 292 282 294 296 286 288 294 293 294 286 288 290 293 294 300 298 298 301 297 302 297 300 303 301 298 303 296 294 290
247 252 253 257 276 269 277 294 296 297 283 301 278 307 291 281 304 299 296 296 288 289 297 297 307 305 297 298 301 299 307 301 298 296 300 292 291 296 299 295 300 300 291 288 293
240 244 248 265 272 273 272 285 286 277 274 280 285 282 282 281 289 299 300 297 301 294 291 292 295 301 301 301 300 302 303 301 297 295 289 286 295 294 294 303 301 303 286 282 296
229 234 246 265 261 264 268 260 275 271 281 278 278 279 279 285 285 284 287 287 290 292 291 295 294 299 295 297 300 303 300 299 296 289 287 294 293 292 301 302 302 303 297 289 292
228 232 257 268 264 257 247 266 271 272 270 284 279 279 278 280 284 286 287 288 291 291 293 291 290 298 310 306 303 301 302 297 296 297 297 300 294 299 324 323 313 304 298 295 293
224 251 256 263 254 253 249 264 269 276 275 273 280 281 280 281 284 291 287 289 295 300 294 295 289 300 307 309 309 303 297 304 299 297 296 295 295 296 299 301 297 296 295 295 299
230 244 251 232 214 232 264 268 273 286 285 282 273 284 284 278 279 288 290 304 300 308 308 299 292 296 297 303 301 301 307 300 297 294 292 295 296 299 308 313 312 306 302 293 299
209 257 258 238 232 254 263 271 278 284 289 283 280 283 285 286 288 287 295 296 303 301 305 301 294 292 296 297 296 300 299 301 304 301 296 293 295 317 315 319 318 304 300 303 307
243 263 251 249 252 262 264 274 282 278 285 283 286 285 285 288 287 286 289 292 309 307 300 302 298 292 293 298 300 298 299 299 295 296 294 297 296 314 315 313 316 309 299 302 301
256 268 258 256 263 263 273 273 280 280 282 285 284 290 293 288 290 293 294 301 308 308 307 309 300 297 296 299 298 292 292 292 292 291 289 291 291 296 299 298 295 291 301 302 294
253 259 259 261 278 265 268 269 274 288 289 290 292 295 294 293 293 296 299 306 311 309 312 313 299 294 292 296 301 298 297 297 296 293 295 292 299 294 299 300 290 287 281 299 294
272 272 262 257 263 273 271 279 274 282 286 292 291 289 291 293 292 292 297 301 307 311 307 303 298 299 296 295 298 298 295 294 291 290 289 292 291 287 290 296 292 284 285 291 290
272 273 270 272 263 266 272 279 280 281 289 289 290 297 303 299 299 299 301 303 301 304 302 302 297 299 295 296 296 294 292 293 290 290 290 291 289 281 282 299 298 287 288 291 284
287 288 282 280 274 269 274 281 280 287 291 294 295 295 296 299 307 310 310 308 304 304 303 302 301 301 297 302 302 295 294 293 294 291 292 286 277 285 281 290 296 291 292 287 284